| time (UTC) | temp C | wind direction | speed KPH | gust KPH | rain 1hr cm | rain 24hr cm | rain mn cm | humidity % | barometer mb |
| 20260902131020 | 25 | 207 | 4.8 | 8.0 | 0.00 | 0.00 | 0.00 | 100 | 1124.6 |
| 20260902125121 | 25 | 202 | 0.0 | 1.6 | 0.00 | 0.00 | 0.00 | 100 | 1124.6 |
| 20260902124119 | 24 | 225 | 3.2 | 6.4 | 0.00 | 0.00 | 0.00 | 100 | 1124.6 |
| 20260902123119 | 24 | 202 | 3.2 | 4.8 | 0.00 | 0.00 | 0.00 | 100 | 1124.6 |
| 20260902122120 | 23 | 157 | 0.0 | 0.0 | 0.00 | 0.00 | 0.00 | 100 | 1124.6 |
| 20260902121119 | 23 | 202 | 0.0 | 1.6 | 0.00 | 0.00 | 0.00 | 100 | 1124.4 |
| 20260902120120 | 23 | 202 | 1.6 | 3.2 | 0.00 | 0.00 | 0.00 | 100 | 1124.2 |
| 20260902114120 | 23 | 202 | 3.2 | 3.2 | 0.00 | 0.00 | 0.00 | 100 | 1124.0 |
| 20260902113219 | 23 | 202 | 0.0 | 1.6 | 0.00 | 0.00 | 0.00 | 100 | 1124.0 |
| 20260902111219 | 23 | 225 | 1.6 | 1.6 | 0.00 | 0.00 | 0.00 | 100 | 1123.7 |
| 20260902095520 | 23 | 225 | 3.2 | 6.4 | 0.00 | 0.00 | 0.00 | 100 | 1123.5 |
| 20260902094520 | 23 | 225 | 1.6 | 3.2 | 0.00 | 0.00 | 0.00 | 100 | 1123.5 |
| 20260902093520 | 23 | 242 | 1.6 | 3.2 | 0.00 | 0.00 | 0.00 | 100 | 1123.6 |
| 20260902091520 | 23 | 210 | 1.6 | 3.2 | 0.00 | 0.00 | 0.00 | 100 | 1123.6 |
| 20260902090521 | 23 | 213 | 3.2 | 4.8 | 0.00 | 0.00 | 0.00 | 100 | 1123.6 |
| 20260902085522 | 22 | 202 | 3.2 | 4.8 | 0.00 | 0.00 | 0.00 | 100 | 1123.6 |
| 20260902083620 | 22 | 180 | 0.0 | 0.0 | 0.00 | 0.00 | 0.00 | 100 | 1123.6 |
| 20260902082719 | 22 | 180 | 0.0 | 0.0 | 0.00 | 0.00 | 0.00 | 100 | 1123.6 |
| 20260902081720 | 22 | 180 | 0.0 | 0.0 | 0.00 | 0.00 | 0.00 | 100 | 1123.6 |
| 20260902075720 | 22 | 180 | 0.0 | 0.0 | 0.00 | 0.00 | 0.00 | 100 | 1123.6 |
| 20260902074818 | 22 | 180 | 0.0 | 0.0 | 0.00 | 0.00 | 0.00 | 100 | 1123.5 |
| 20260902073819 | 22 | 180 | 0.0 | 0.0 | 0.00 | 0.00 | 0.00 | 100 | 1123.5 |
| 20260902072819 | 22 | 180 | 0.0 | 0.0 | 0.00 | 0.00 | 0.00 | 100 | 1123.3 |
| 20260902071820 | 23 | 180 | 0.0 | 0.0 | 0.00 | 0.00 | 0.00 | 100 | 1123.5 |
| 20260902070820 | 23 | 180 | 0.0 | 0.0 | 0.00 | 0.00 | 0.00 | 100 | 1123.5 |
| 20260902065820 | 23 | 180 | 0.0 | 0.0 | 0.00 | 0.00 | 0.00 | 100 | 1123.6 |
| 20260902064919 | 22 | 180 | 0.0 | 1.6 | 0.00 | 0.00 | 0.00 | 100 | 1123.6 |
| 20260902063918 | 22 | 180 | 0.0 | 0.0 | 0.00 | 0.00 | 0.00 | 100 | 1123.6 |
| 20260902062920 | 23 | 157 | 0.0 | 0.0 | 0.00 | 0.00 | 0.00 | 100 | 1123.6 |
| 20260902061919 | 23 | 157 | 0.0 | 0.0 | 0.00 | 0.00 | 0.00 | 100 | 1123.8 |